QPF
0.00 0.00 0.00 0.00 0.00 0.00 0.00 0.00 0.00 0.00 0.00 0.00 0.00 0.00 0.00 0.00 0.00 0.00 0.00 0.00 0.00 0.00 0.00 0.00 0.00 0.00 0.00 0.00 0.00 0.00 0.00 0.00 0.00 0.00 0.00 0.00 0.00 0.00 0.00 0.00 0.00 0.00 0.01 0.05
0.00 0.00 0.00 0.00 0.00 0.00 0.00 0.00 0.00 0.00 0.00 0.00 0.00 0.00 0.00 0.00 0.00 0.00 0.00 0.00 0.00 0.00 0.00 0.00 0.00 0.00 0.00 0.00 0.00 0.00 0.00 0.00 0.00 0.00 0.00 0.00 0.00 0.00 0.00 0.00 0.00 0.00 0.00 0.02
0.00 0.00 0.00 0.00 0.00 0.00 0.00 0.00 0.00 0.00 0.00 0.00 0.00 0.00 0.00 0.00 0.00 0.00 0.00 0.00 0.00 0.00 0.00 0.00 0.00 0.00 0.00 0.00 0.00 0.00 0.00 0.00 0.00 0.00 0.00 0.00 0.00 0.00 0.00 0.00 0.00 0.00 0.00 0.01
0.00 0.00 0.00 0.00 0.00 0.00 0.00 0.00 0.00 0.00 0.00 0.00 0.00 0.00 0.00 0.00 0.00 0.00 0.00 0.00 0.00 0.00 0.00 0.00 0.00 0.00 0.00 0.00 0.00 0.00 0.00 0.00 0.00 0.00 0.00 0.00 0.00 0.00 0.00 0.00 0.00 0.00 0.00 0.02
0.00 0.00 0.00 0.00 0.00 0.00 0.00 0.00 0.00 0.00 0.00 0.00 0.00 0.00 0.00 0.00 0.00 0.00 0.00 0.00 0.00 0.00 0.00 0.00 0.00 0.00 0.00 0.00 0.00 0.00 0.00 0.00 0.00 0.00 0.00 0.00 0.00 0.00 0.00 0.00 0.00 0.00 0.00 0.01
0.00 0.00 0.00 0.00 0.00 0.00 0.00 0.00 0.00 0.00 0.00 0.00 0.00 0.00 0.00 0.00 0.00 0.00 0.00 0.00 0.00 0.00 0.00 0.00 0.00 0.00 0.00 0.00 0.00 0.00 0.00 0.00 0.00 0.00 0.00 0.00 0.00 0.00 0.00 0.00 0.00 0.00 0.00 0.00
0.00 0.00 0.00 0.00 0.00 0.00 0.00 0.00 0.00 0.00 0.00 0.00 0.00 0.00 0.00 0.00 0.00 0.00 0.00 0.00 0.00 0.00 0.00 0.00 0.00 0.00 0.00 0.00 0.00 0.00 0.00 0.00 0.00 0.00 0.00 0.00 0.00 0.00 0.00 0.00 0.00 0.00 0.00 0.00
0.00 0.00 0.00 0.00 0.00 0.00 0.00 0.00 0.00 0.00 0.00 0.00 0.00 0.00 0.00 0.00 0.00 0.00 0.00 0.00 0.00 0.00 0.00 0.00 0.00 0.00 0.00 0.00 0.00 0.00 0.00 0.00 0.00 0.00 0.00 0.00 0.00 0.00 0.00 0.00 0.00 0.00 0.00 0.00
0.00 0.00 0.00 0.00 0.00 0.00 0.00 0.00 0.00 0.00 0.00 0.00 0.00 0.00 0.00 0.00 0.00 0.00 0.00 0.00 0.00 0.00 0.00 0.00 0.00 0.00 0.00 0.00 0.00 0.00 0.00 0.00 0.00 0.00 0.00 0.00 0.00 0.00 0.00 0.00 0.01 0.01 0.00 0.00
0.00 0.00 0.00 0.00 0.00 0.00 0.00 0.00 0.00 0.00 0.00 0.00 0.00 0.00 0.00 0.00 0.00 0.00 0.00 0.00 0.00 0.00 0.00 0.00 0.00 0.00 0.00 0.00 0.00 0.00 0.00 0.00 0.00 0.00 0.00 0.00 0.00 0.00 0.00 0.00 0.00 0.00 0.01 0.01
0.00 0.00 0.00 0.00 0.00 0.00 0.00 0.00 0.00 0.00 0.00 0.00 0.00 0.00 0.00 0.00 0.00 0.00 0.00 0.00 0.00 0.00 0.00 0.00 0.00 0.00 0.00 0.00 0.00 0.00 0.00 0.00 0.00 0.00 0.00 0.00 0.01 0.01 0.00 0.00 0.00 0.00 0.00 0.00
0.00 0.00 0.00 0.00 0.00 0.00 0.00 0.00 0.00 0.00 0.00 0.00 0.00 0.00 0.00 0.00 0.00 0.00 0.00 0.00 0.00 0.00 0.00 0.00 0.00 0.00 0.00 0.00 0.00 0.00 0.00 0.00 0.00 0.01 0.01 0.00 0.00 0.00 0.01 0.01 0.02 0.01 0.00 0.00
0.00 0.00 0.00 0.00 0.00 0.00 0.00 0.00 0.00 0.00 0.00 0.00 0.00 0.00 0.00 0.00 0.00 0.00 0.00 0.00 0.00 0.00 0.00 0.00 0.00 0.00 0.00 0.00 0.00 0.00 0.00 0.00 0.00 0.01 0.00 0.01 0.01 0.00 0.01 0.01 0.02 0.02 0.01 0.01
0.00 0.00 0.00 0.00 0.00 0.00 0.00 0.00 0.00 0.00 0.00 0.00 0.00 0.00 0.00 0.00 0.00 0.00 0.00 0.00 0.00 0.00 0.00 0.00 0.00 0.00 0.00 0.00 0.00 0.00 0.00 0.00 0.00 0.00 0.00 0.00 0.00 0.00 0.02 0.02 0.01 0.03 0.01 0.01
0.00 0.00 0.00 0.00 0.00 0.00 0.00 0.00 0.00 0.00 0.00 0.00 0.00 0.00 0.00 0.00 0.00 0.00 0.00 0.00 0.00 0.00 0.00 0.00 0.00 0.00 0.00 0.00 0.00 0.00 0.00 0.00 0.00 0.00 0.00 0.00 0.04 0.07 0.10 0.17 0.17 0.40 0.24 0.14
0.00 0.00 0.00 0.00 0.00 0.00 0.00 0.00 0.00 0.00 0.00 0.00 0.00 0.00 0.00 0.00 0.00 0.00 0.00 0.00 0.00 0.00 0.00 0.00 0.00 0.00 0.00 0.00 0.00 0.00 0.00 0.00 0.00 0.00 0.00 0.00 0.02 0.06 0.07 0.15 0.11 0.22 0.37 0.35
0.00 0.00 0.00 0.00 0.00 0.00 0.00 0.00 0.00 0.00 0.00 0.00 0.00 0.00 0.00 0.00 0.00 0.00 0.00 0.00 0.00 0.00 0.00 0.00 0.00 0.00 0.00 0.00 0.00 0.00 0.00 0.00 0.00 0.00 0.00 0.00 0.00 0.02 0.03 0.08 0.08 0.03 0.17 0.15
0.00 0.00 0.00 0.00 0.00 0.00 0.00 0.00 0.00 0.00 0.00 0.00 0.00 0.00 0.00 0.00 0.00 0.00 0.00 0.00 0.00 0.00 0.00 0.00 0.00 0.00 0.00 0.00 0.00 0.00 0.00 0.00 0.00 0.00 0.00 0.00 0.00 0.00 0.00 0.00 0.05 0.02 0.09 0.27
0.00 0.00 0.00 0.00 0.00 0.00 0.00 0.00 0.00 0.00 0.00 0.00 0.00 0.00 0.00 0.00 0.00 0.00 0.00 0.00 0.00 0.00 0.00 0.00 0.00 0.00 0.00 0.00 0.00 0.00 0.00 0.00 0.00 0.00 0.00 0.00 0.00 0.00 0.00 0.00 0.00 0.00 0.00 0.01
0.00 0.00 0.00 0.00 0.00 0.00 0.00 0.00 0.00 0.00 0.00 0.00 0.00 0.00 0.00 0.00 0.00 0.00 0.00 0.00 0.00 0.00 0.00 0.00 0.00 0.00 0.00 0.00 0.00 0.00 0.00 0.00 0.00 0.00 0.00 0.00 0.00 0.00 0.00 0.00 0.00 0.00 0.00 0.00
0.00 0.00 0.00 0.00 0.00 0.00 0.00 0.00 0.00 0.00 0.00 0.00 0.00 0.00 0.00 0.00 0.00 0.00 0.00 0.00 0.00 0.00 0.00 0.00 0.00 0.00 0.00 0.00 0.00 0.00 0.00 0.00 0.00 0.00 0.00 0.00 0.00 0.00 0.00 0.00 0.00 0.00 0.00 0.00
0.00 0.00 0.00 0.00 0.00 0.00 0.00 0.00 0.00 0.00 0.00 0.00 0.00 0.00 0.00 0.00 0.00 0.00 0.00 0.00 0.00 0.00 0.00 0.00 0.00 0.00 0.00 0.00 0.00 0.00 0.00 0.00 0.00 0.00 0.00 0.00 0.00 0.00 0.00 0.00 0.00 0.00 0.00 0.00
0.00 0.00 0.00 0.00 0.00 0.00 0.00 0.00 0.00 0.00 0.00 0.00 0.00 0.00 0.00 0.00 0.00 0.00 0.00 0.00 0.00 0.00 0.00 0.00 0.00 0.00 0.00 0.00 0.00 0.00 0.00 0.00 0.00 0.00 0.00 0.00 0.00 0.00 0.00 0.00 0.00 0.00 0.00 0.00
0.00 0.00 0.00 0.00 0.00 0.00 0.00 0.00 0.00 0.00 0.00 0.00 0.00 0.00 0.00 0.00 0.00 0.00 0.00 0.00 0.00 0.00 0.00 0.00 0.00 0.00 0.00 0.00 0.00 0.00 0.00 0.00 0.00 0.00 0.00 0.00 0.00 0.00 0.00 0.00 0.00 0.00 0.00 0.00
0.00 0.00 0.00 0.00 0.00 0.00 0.00 0.00 0.00 0.00 0.00 0.00 0.00 0.00 0.00 0.00 0.00 0.00 0.00 0.00 0.00 0.00 0.00 0.00 0.00 0.00 0.00 0.00 0.00 0.00 0.00 0.00 0.00 0.00 0.00 0.00 0.00 0.00 0.00 0.00 0.00 0.00 0.00 0.00
0.00 0.00 0.00 0.00 0.00 0.00 0.00 0.00 0.00 0.00 0.00 0.00 0.00 0.00 0.00 0.00 0.00 0.00 0.00 0.00 0.00 0.00 0.00 0.00 0.00 0.00 0.00 0.00 0.00 0.00 0.00 0.00 0.00 0.00 0.00 0.00 0.00 0.00 0.00 0.00 0.00 0.00 0.00 0.00
MSLP
1019.70 1020.36 1020.40 1020.25 1020.23 1020.07 1020.03 1020.03 1019.60 1018.65 1017.71 1017.43 1016.60 1015.86 1015.23 1014.62 1014.29 1014.35 1014.54 1014.70 1014.82 1014.76 1014.17 1013.84 1013.44 1013.25 1012.90 1012.56 1012.40 1012.11 1011.69 1011.27 1011.02 1010.41 1010.05 1009.69 1009.15 1009.04 1008.90 1008.74 1008.62 1008.60 1008.86 1009.07
1020.20 1020.22 1019.74 1019.67 1019.72 1019.80 1019.78 1019.85 1019.35 1018.34 1017.70 1017.63 1016.83 1015.69 1014.75 1014.20 1013.72 1013.67 1014.10 1014.61 1014.64 1014.52 1013.90 1013.33 1012.98 1012.88 1012.61 1012.29 1011.78 1011.32 1010.93 1010.60 1010.25 1009.93 1009.23 1008.71 1008.13 1007.90 1007.95 1008.00 1007.86 1007.82 1007.92 1008.34
1020.42 1019.63 1019.42 1019.45 1019.44 1019.53 1019.45 1019.52 1019.32 1019.06 1018.16 1017.39 1016.95 1015.48 1014.37 1013.15 1012.86 1013.15 1013.67 1013.94 1014.20 1014.02 1013.78 1013.27 1013.01 1012.39 1012.02 1011.73 1011.32 1010.84 1010.28 1009.95 1009.55 1009.15 1008.71 1007.89 1007.68 1007.42 1007.31 1007.07 1007.12 1006.96 1007.24 1007.52
1020.20 1019.29 1019.12 1019.18 1019.27 1019.31 1019.28 1018.99 1019.21 1019.19 1019.17 1018.91 1017.90 1017.10 1014.77 1013.46 1013.00 1013.02 1013.39 1013.61 1013.53 1013.54 1013.28 1013.17 1012.73 1012.09 1011.70 1011.14 1010.76 1010.28 1009.69 1009.16 1008.58 1008.20 1007.82 1007.27 1006.88 1006.70 1006.60 1006.57 1006.57 1006.54 1006.59 1006.94
1020.07 1019.51 1019.08 1018.90 1018.76 1019.01 1019.10 1019.02 1019.23 1019.23 1019.54 1019.45 1018.38 1018.40 1014.54 1013.67 1013.31 1013.20 1013.14 1012.95 1012.88 1012.92 1012.89 1012.64 1012.30 1011.89 1011.24 1010.87 1010.39 1009.82 1009.14 1008.47 1007.80 1007.31 1006.81 1006.27 1005.95 1005.78 1005.86 1005.90 1005.92 1005.95 1005.80 1006.09
1020.21 1019.32 1018.99 1018.43 1018.24 1018.37 1018.55 1018.97 1019.09 1019.29 1019.77 1019.68 1018.18 1017.85 1014.92 1013.75 1012.72 1012.65 1012.63 1012.50 1012.49 1012.56 1012.43 1012.32 1011.87 1011.55 1011.07 1010.41 1010.00 1009.51 1008.78 1007.95 1007.37 1006.93 1006.30 1005.57 1005.13 1004.95 1005.18 1005.28 1005.41 1005.36 1005.23 1005.50
1020.59 1019.44 1018.65 1018.39 1018.41 1018.36 1018.74 1019.47 1020.12 1020.34 1020.41 1019.19 1017.75 1017.39 1014.15 1012.67 1012.12 1011.91 1012.13 1012.16 1012.22 1012.26 1012.25 1012.09 1011.93 1011.48 1010.73 1009.92 1009.27 1008.87 1008.17 1007.24 1006.57 1006.09 1005.55 1004.99 1004.65 1004.49 1004.36 1004.47 1004.67 1004.83 1004.90 1004.95
1022.26 1019.95 1019.07 1018.46 1018.53 1018.72 1019.07 1019.59 1020.71 1021.61 1021.31 1019.75 1017.71 1016.12 1013.15 1011.75 1011.31 1011.44 1011.53 1011.75 1012.02 1012.16 1012.13 1011.94 1011.65 1011.19 1010.64 1009.87 1009.13 1008.26 1007.72 1006.95 1006.22 1005.51 1004.85 1004.33 1003.89 1003.81 1003.85 1003.87 1003.99 1004.07 1004.21 1004.22
1022.95 1021.10 1019.37 1018.81 1018.66 1018.99 1019.21 1019.83 1020.29 1021.09 1021.31 1020.76 1017.81 1014.98 1012.63 1012.00 1011.82 1011.82 1011.81 1011.94 1011.93 1011.92 1011.81 1011.60 1011.37 1011.05 1010.40 1009.79 1009.25 1008.75 1007.76 1006.84 1006.16 1005.43 1004.50 1003.58 1003.21 1003.15 1003.09 1003.07 1003.21 1003.47 1003.60 1003.74
1022.99 1022.60 1020.35 1019.40 1019.09 1019.19 1019.41 1019.99 1020.70 1021.45 1022.01 1020.96 1018.01 1016.01 1013.78 1012.82 1012.38 1012.21 1012.14 1011.92 1011.76 1011.71 1011.56 1011.33 1011.25 1010.87 1010.33 1009.92 1009.41 1008.74 1008.00 1007.23 1006.25 1005.24 1004.20 1003.27 1002.46 1002.22 1002.22 1002.47 1002.73 1002.89 1003.00 1003.25
1022.63 1023.17 1021.25 1020.41 1019.77 1019.42 1019.96 1020.29 1021.07 1021.91 1022.36 1022.18 1020.55 1015.42 1012.88 1012.30 1012.03 1012.00 1011.91 1011.73 1011.59 1011.56 1011.51 1011.30 1011.23 1010.93 1010.62 1010.13 1009.63 1009.05 1008.29 1007.45 1006.38 1005.42 1004.41 1003.49 1002.67 1001.96 1001.73 1001.89 1002.07 1002.23 1002.38 1002.69
1022.74 1023.14 1022.59 1020.57 1019.77 1019.62 1019.64 1019.99 1020.80 1022.01 1022.46 1022.14 1021.18 1016.24 1012.49 1011.87 1011.57 1011.58 1011.65 1011.58 1011.30 1011.14 1011.09 1011.07 1010.95 1010.87 1010.70 1010.31 1009.90 1009.46 1008.75 1007.95 1007.06 1006.05 1005.07 1004.13 1003.22 1002.36 1001.70 1001.60 1001.65 1001.87 1001.88 1001.95
1022.56 1023.51 1023.20 1020.86 1020.55 1019.98 1020.04 1020.03 1020.60 1021.53 1022.09 1021.69 1020.62 1015.22 1012.24 1011.83 1011.69 1011.46 1011.52 1011.37 1011.02 1010.99 1010.90 1010.80 1010.75 1010.71 1010.62 1010.47 1010.22 1009.66 1008.95 1008.29 1007.46 1006.40 1005.54 1004.73 1003.82 1002.91 1002.15 1001.66 1001.62 1001.66 1001.53 1001.49
1022.61 1023.63 1023.37 1022.08 1020.30 1019.95 1019.93 1019.78 1020.31 1020.92 1022.02 1020.29 1017.55 1014.44 1012.51 1011.84 1011.62 1011.38 1011.25 1011.04 1010.76 1010.60 1010.55 1010.53 1010.56 1010.54 1010.49 1010.39 1010.23 1009.83 1009.17 1008.46 1007.71 1006.87 1006.12 1005.40 1004.62 1003.92 1003.05 1002.46 1002.24 1001.78 1001.44 1001.21
1023.38 1023.55 1022.97 1021.57 1020.19 1019.81 1018.96 1018.94 1019.33 1019.73 1019.16 1018.97 1015.18 1014.37 1011.80 1011.53 1011.26 1010.85 1010.74 1010.56 1010.39 1010.11 1010.14 1010.13 1010.19 1010.21 1010.20 1010.22 1010.06 1009.71 1009.34 1008.60 1008.09 1007.51 1006.82 1005.98 1005.32 1004.63 1003.90 1003.29 1002.97 1002.54 1002.28 1002.28
1023.68 1023.72 1023.35 1021.11 1019.10 1018.68 1018.03 1017.21 1017.30 1017.52 1017.38 1016.62 1015.22 1013.41 1011.03 1009.89 1010.15 1010.30 1010.00 1009.97 1009.75 1009.38 1009.41 1009.56 1009.72 1009.75 1009.74 1009.84 1009.89 1009.63 1009.42 1008.94 1008.57 1008.02 1007.43 1006.82 1006.04 1005.35 1004.91 1004.48 1003.99 1003.55 1003.40 1002.98
1023.80 1024.04 1023.93 1021.59 1019.18 1017.99 1015.95 1013.37 1014.68 1014.40 1013.99 1013.96 1013.99 1010.85 1010.21 1009.78 1009.76 1009.35 1009.10 1009.14 1008.99 1008.73 1008.80 1008.81 1008.88 1009.09 1009.18 1009.29 1009.32 1009.25 1009.12 1008.99 1008.79 1008.45 1007.95 1007.35 1006.88 1006.28 1005.74 1005.57 1005.30 1004.95 1004.62 1004.19
1023.32 1024.25 1024.11 1022.09 1019.50 1016.54 1012.45 1011.54 1011.60 1012.00 1011.47 1011.28 1010.68 1009.46 1009.02 1008.87 1008.84 1008.61 1008.19 1007.96 1007.83 1007.94 1007.96 1008.19 1008.40 1008.42 1008.55 1008.67 1008.76 1008.73 1008.65 1008.63 1008.58 1008.45 1008.21 1007.78 1007.32 1006.96 1006.51 1006.13 1006.24 1006.15 1005.73 1005.42
1022.55 1023.32 1023.61 1022.52 1020.15 1015.23 1010.92 1011.11 1011.06 1010.78 1008.96 1008.50 1008.83 1008.29 1008.13 1008.50 1008.54 1007.25 1006.69 1006.61 1006.52 1006.57 1006.83 1007.06 1007.34 1007.83 1008.11 1008.24 1008.25 1008.46 1008.65 1008.63 1008.58 1008.45 1008.15 1007.88 1007.71 1007.49 1007.28 1006.91 1006.89 1007.02 1006.64 1006.43
1022.39 1022.68 1023.33 1022.37 1020.41 1015.54 1010.79 1009.79 1009.69 1010.00 1008.71 1006.91 1007.44 1007.45 1007.51 1008.23 1008.16 1006.56 1005.70 1005.88 1005.92 1006.07 1006.15 1006.52 1006.80 1007.38 1007.80 1007.92 1008.06 1008.36 1008.49 1008.57 1008.51 1008.42 1008.31 1008.06 1007.75 1007.62 1007.57 1007.42 1007.34 1007.50 1007.42 1007.54
1022.08 1022.31 1021.88 1021.30 1019.35 1014.47 1010.31 1009.54 1009.36 1009.24 1007.77 1006.61 1006.80 1006.54 1007.37 1007.54 1006.32 1005.47 1005.17 1005.35 1005.59 1005.69 1005.83 1006.08 1006.51 1006.79 1007.06 1007.39 1007.80 1008.15 1008.30 1008.33 1008.27 1008.20 1008.15 1008.18 1008.09 1007.75 1007.51 1007.49 1007.52 1007.59 1007.87 1008.06
1018.52 1019.31 1019.38 1018.75 1017.02 1012.59 1008.91 1009.23 1008.78 1006.37 1005.78 1005.95 1006.10 1006.19 1006.38 1006.10 1005.66 1005.50 1005.17 1005.21 1005.20 1005.50 1005.67 1005.89 1006.35 1006.51 1006.75 1007.08 1007.54 1007.87 1007.96 1007.81 1008.05 1008.17 1008.20 1008.20 1008.17 1008.06 1008.07 1007.99 1008.05 1008.15 1008.12 1008.30
1016.46 1014.66 1014.56 1014.20 1010.95 1008.29 1007.67 1006.24 1005.49 1005.71 1005.47 1005.43 1005.42 1005.16 1005.35 1005.25 1005.07 1004.76 1004.60 1004.47 1004.56 1004.74 1005.19 1005.47 1005.73 1006.00 1006.23 1006.53 1006.87 1007.27 1007.20 1007.56 1007.86 1008.10 1008.26 1008.30 1008.32 1008.36 1008.36 1008.35 1008.55 1008.70 1008.76 1008.94
1013.50 1012.79 1012.78 1011.45 1007.68 1007.38 1006.21 1005.34 1005.33 1004.93 1004.88 1004.47 1004.50 1004.53 1004.51 1004.57 1004.19 1004.12 1004.02 1003.79 1003.85 1003.99 1003.97 1004.57 1005.28 1005.54 1005.75 1005.74 1005.96 1006.17 1006.62 1007.03 1007.53 1007.83 1008.04 1008.19 1008.36 1008.59 1008.78 1008.87 1008.94 1009.10 1009.33 1009.53
1011.80 1011.70 1010.93 1008.45 1006.60 1006.21 1004.48 1004.50 1004.11 1003.68 1003.63 1003.84 1003.71 1003.63 1003.81 1003.97 1003.60 1003.34 1003.11 1002.93 1002.83 1002.89 1003.12 1003.16 1003.92 1004.52 1004.48 1004.97 1005.29 1005.41 1005.90 1006.60 1007.14 1007.39 1007.70 1008.02 1008.23 1008.43 1008.67 1008.82 1009.01 1009.32 1009.59 1009.55
1011.32 1009.87 1009.35 1006.71 1005.07 1005.01 1002.13 1002.97 1002.92 1002.84 1002.81 1002.79 1002.62 1002.51 1002.44 1002.72 1002.55 1002.29 1001.91 1001.80 1001.78 1001.94 1001.99 1002.53 1002.39 1002.91 1003.24 1003.73 1004.29 1004.76 1005.09 1005.61 1006.36 1007.05 1007.34 1007.56 1007.89 1008.21 1008.47 1008.72 1008.99 1008.93 1009.06 1009.27
Thickness
5556 5532 5515 5511 5506 5501 5492 5479 5473 5486 5502 5498 5512 5526 5542 5555 5562 5568 5569 5573 5577 5580 5586 5590 5596 5599 5604 5608 5611 5615 5620 5623 5626 5633 5637 5641 5649 5652 5658 5663 5668 5672 5676 5679
5543 5524 5527 5518 5508 5495 5485 5469 5466 5483 5495 5493 5501 5521 5539 5551 5561 5568 5566 5569 5572 5571 5578 5586 5590 5592 5596 5599 5605 5609 5613 5616 5618 5622 5628 5633 5639 5643 5645 5650 5656 5660 5665 5669
5538 5541 5531 5521 5507 5495 5485 5474 5469 5471 5483 5491 5496 5508 5531 5553 5566 5566 5567 5568 5568 5572 5573 5577 5582 5589 5593 5595 5599 5605 5608 5610 5612 5615 5620 5628 5629 5632 5634 5640 5645 5652 5653 5657
5551 5553 5539 5522 5510 5504 5482 5491 5485 5480 5468 5463 5492 5476 5517 5549 5564 5564 5562 5564 5571 5570 5572 5575 5580 5586 5588 5593 5596 5599 5601 5605 5609 5610 5614 5618 5620 5624 5627 5630 5632 5638 5642 5643
5556 5554 5544 5530 5523 5513 5499 5501 5493 5493 5479 5478 5488 5468 5524 5555 5560 5561 5562 5571 5573 5569 5570 5575 5578 5581 5584 5586 5589 5593 5596 5600 5604 5607 5610 5615 5618 5620 5620 5620 5623 5626 5634 5635
5553 5560 5553 5545 5539 5529 5520 5510 5503 5503 5487 5485 5505 5504 5525 5546 5562 5566 5567 5569 5569 5569 5570 5571 5575 5576 5578 5581 5584 5587 5591 5596 5599 5600 5604 5611 5616 5617 5615 5614 5616 5620 5625 5625
5546 5562 5562 5556 5544 5538 5525 5504 5478 5477 5487 5486 5531 5515 5550 5563 5567 5568 5566 5566 5566 5565 5566 5566 5566 5568 5572 5580 5585 5588 5592 5596 5599 5601 5603 5607 5611 5612 5613 5613 5612 5612 5614 5617
5514 5533 5562 5560 5552 5541 5533 5533 5505 5491 5463 5489 5530 5539 5555 5572 5571 5570 5569 5568 5566 5565 5560 5563 5565 5567 5571 5578 5585 5590 5591 5593 5597 5600 5601 5603 5606 5606 5606 5606 5606 5606 5607 5609
5513 5537 5559 5562 5557 5546 5541 5510 5533 5519 5495 5513 5523 5550 5571 5567 5564 5562 5563 5563 5562 5563 5561 5563 5565 5567 5571 5578 5580 5582 5586 5590 5592 5594 5598 5602 5602 5600 5601 5600 5598 5596 5596 5597
5538 5513 5550 5560 5557 5550 5544 5536 5504 5489 5492 5505 5522 5530 5538 5557 5550 5550 5554 5556 5560 5562 5561 5561 5564 5566 5572 5570 5572 5577 5579 5582 5587 5591 5595 5599 5603 5601 5599 5594 5589 5585 5584 5584
5540 5518 5537 5552 5544 5540 5532 5522 5523 5497 5507 5478 5470 5526 5546 5552 5545 5543 5550 5556 5558 5559 5559 5560 5560 5561 5565 5566 5566 5569 5572 5576 5583 5586 5589 5592 5594 5597 5595 5589 5581 5578 5577 5577
5542 5521 5503 5537 5549 5549 5543 5535 5527 5498 5495 5494 5471 5521 5567 5559 5547 5551 5556 5560 5562 5564 5564 5562 5561 5559 5558 5559 5561 5562 5565 5568 5573 5575 5579 5582 5586 5589 5591 5584 5577 5573 5574 5576
5542 5510 5491 5550 5539 5543 5539 5537 5526 5496 5486 5494 5492 5536 5581 5570 5567 5566 5565 5564 5565 5564 5564 5563 5561 5559 5556 5555 5554 5556 5559 5562 5565 5571 5574 5576 5579 5582 5584 5582 5577 5572 5574 5575
5548 5510 5519 5529 5556 5540 5533 5537 5527 5513 5454 5486 5527 5557 5582 5582 5575 5573 5570 5567 5565 5563 5563 5562 5560 5558 5555 5554 5553 5553 5555 5558 5561 5566 5568 5569 5571 5573 5575 5575 5573 5571 5573 5578
5530 5500 5519 5534 5543 5540 5540 5540 5538 5508 5531 5516 5566 5544 5581 5573 5576 5579 5573 5568 5566 5563 5560 5561 5560 5558 5555 5552 5552 5552 5552 5554 5555 5556 5559 5563 5563 5566 5568 5569 5569 5569 5567 5567
5523 5507 5491 5512 5553 5541 5539 5544 5544 5543 5543 5547 5559 5569 5595 5599 5585 5570 5571 5572 5572 5571 5569 5564 5560 5557 5555 5552 5550 5551 5549 5549 5547 5547 5548 5552 5556 5557 5559 5561 5561 5563 5562 5562
5514 5496 5492 5531 5545 5539 5540 5558 5560 5559 5557 5562 5548 5585 5588 5585 5586 5586 5586 5582 5582 5580 5575 5570 5566 5561 5555 5551 5553 5553 5550 5547 5545 5542 5541 5543 5546 5548 5550 5551 5552 5553 5555 5558
5506 5494 5492 5510 5521 5581 5614 5598 5585 5580 5577 5575 5576 5588 5586 5587 5586 5584 5585 5587 5585 5584 5581 5575 5570 5566 5562 5559 5557 5555 5553 5550 5545 5540 5535 5534 5538 5540 5542 5544 5543 5544 5547 5548
5513 5503 5494 5493 5500 5567 5617 5586 5576 5579 5609 5595 5591 5600 5595 5588 5582 5588 5592 5590 5593 5589 5586 5582 5576 5569 5565 5561 5559 5555 5551 5547 5543 5539 5533 5526 5531 5534 5536 5538 5537 5537 5540 5541
5503 5497 5481 5484 5494 5564 5610 5601 5587 5583 5587 5609 5591 5592 5588 5581 5577 5584 5599 5590 5588 5586 5585 5580 5575 5569 5563 5560 5556 5552 5549 5545 5542 5539 5533 5526 5532 5534 5534 5536 5537 5532 5533 5532
5491 5486 5489 5482 5485 5539 5589 5588 5578 5580 5589 5602 5585 5591 5577 5575 5589 5600 5599 5593 5586 5581 5579 5577 5570 5568 5564 5559 5553 5550 5547 5544 5542 5540 5538 5534 5534 5535 5535 5533 5531 5530 5527 5525
5506 5493 5484 5482 5482 5531 5582 5572 5573 5592 5596 5593 5592 5588 5582 5578 5583 5583 5586 5583 5582 5576 5572 5569 5564 5562 5559 5555 5550 5546 5543 5544 5541 5539 5537 5535 5533 5533 5531 5530 5528 5526 5525 5523
5517 5533 5520 5522 5542 5586 5575 5590 5589 5580 5584 5583 5583 5584 5573 5577 5580 5580 5580 5580 5578 5576 5568 5563 5563 5559 5555 5551 5549 5544 5544 5540 5536 5534 5531 5530 5529 5528 5526 5526 5524 5522 5520 5518
5518 5522 5513 5531 5582 5568 5578 5580 5571 5578 5570 5575 5572 5571 5571 5574 5579 5573 5570 5571 5573 5573 5572 5563 5554 5553 5552 5550 5547 5546 5541 5537 5531 5529 5527 5525 5523 5520 5518 5517 5517 5514 5512 5511
5515 5509 5515 5539 5562 5559 5572 5563 5570 5571 5568 5558 5560 5560 5560 5558 5563 5564 5571 5566 5569 5571 5568 5567 5561 5554 5555 5548 5545 5543 5538 5531 5527 5525 5521 5518 5517 5515 5512 5510 5508 5505 5502 5503
5492 5514 5508 5531 5554 5542 5576 5562 5558 5559 5559 5555 5558 5559 5556 5554 5559 5559 5566 5566 5565 5562 5563 5560 5564 5560 5556 5548 5544 5539 5536 5531 5526 5520 5516 5513 5510 5507 5505 5503 5499 5501 5499 5497